Location: São Paulo
(23.5507°S, 46.6334°W)
Time: 14:15:51
(UTC-03:00)

Tiros 1 - Pass Details

Date: 19 February 2026
Orbit: 618 x 649 km, 48.4° (Epoch: 11 March)

Event Time Altitude Azimuth Distance (km) Brightness Sun altitude
Rises 19:22:02 0° 288° (WNW) 2,910 11.5 -9.4°
Reaches altitude 10° 19:24:40 10° 275° (W) 2,014 10.9 -10.0°
Maximum altitude 19:28:32 26° 218° (SW) 1,271 9.4 -10.8°
Drops below altitude 10° 19:32:28 10° 162° (SSE) 2,044 9.7 -11.7°
Sets 19:35:10 0° 148° (SSE) 2,964 10.4 -12.3°
